Location: Calmejanne
(44.7523°N, 1.9418°E)
Time: 11:38:22
(UTC+00:00)

COSMOS 2406 - Pass Details

Date: 14 May 2026
Orbit: 846 x 858 km, 71.0° (Epoch: 8 June)

Event Time Altitude Azimuth Distance (km) Brightness Sun altitude
Rises 19:49:01 0° 173° (S) 3,417 6.0 -6.3°
Reaches altitude 10° 19:51:43 10° 163° (SSE) 2,486 5.2 -6.7°
Maximum altitude 19:56:38 30° 104° (ESE) 1,479 4.0 -7.4°
Drops below altitude 10° 20:01:34 10° 44° (NE) 2,498 5.6 -8.2°
Sets 20:04:17 0° 35° (NE) 3,438 6.4 -8.5°
